"read_dt","SO2 (ppb)","flags","PMT voltage (V)","lamp voltage (V)","lamp intensity (Hz)","internal temp (C)","react chamber temp (C)","sample flow (l/min)","pres (mmHg)","SO2 bkg (ppb)","SO2 coefficient"
2014-10-21 00:00:00,1712E-3,5C000000,-0724,0826,12266,026.9,045.4,0.478,735.9,01.18,0.508
2014-10-21 00:01:00,1842E-3,5C000000,-0724,0825,12279,026.8,045.4,0.478,735.9,01.18,0.508
2014-10-21 00:02:00,1853E-3,5C000000,-0724,0826,12329,026.8,045.4,0.478,735.9,01.18,0.508
2014-10-21 00:03:00,1753E-3,5C000000,-0724,0825,12173,026.8,045.4,0.478,735.8,01.18,0.508
2014-10-21 00:04:00,1836E-3,5C000000,-0724,0825,12172,026.8,045.4,0.478,735.8,01.18,0.508
2014-10-21 00:05:00,1813E-3,5C000000,-0724,0825,12241,026.8,045.4,0.478,735.8,01.18,0.508
2014-10-21 00:06:00,1810E-3,5C000000,-0724,0826,12310,026.7,045.4,0.478,735.8,01.18,0.508
2014-10-21 00:07:00,1805E-3,5C000000,-0724,0827,12469,026.7,045.4,0.478,735.9,01.18,0.508
2014-10-21 00:08:00,1815E-3,5C000000,-0724,0825,12057,026.8,045.4,0.478,735.8,01.18,0.508
2014-10-21 00:09:00,1670E-3,5C000000,-0724,0825,12273,026.8,045.4,0.478,735.7,01.18,0.508
2014-10-21 00:10:00,1777E-3,5C000000,-0724,0825,12250,026.8,045.4,0.478,735.7,01.18,0.508
2014-10-21 00:11:00,1782E-3,5C000000,-0724,0826,12377,026.8,045.4,0.478,735.8,01.18,0.508
2014-10-21 00:12:00,1840E-3,5C000000,-0724,0825,12218,026.8,045.4,0.478,735.8,01.18,0.508
2014-10-21 00:13:00,1770E-3,5C000000,-0724,0825,12289,026.8,045.4,0.478,735.8,01.18,0.508
2014-10-21 00:14:00,1774E-3,5C000000,-0724,0825,12291,026.8,045.4,0.478,735.8,01.18,0.508
2014-10-21 00:15:00,1814E-3,5C000000,-0724,0826,12250,026.8,045.5,0.479,735.7,01.18,0.508
2014-10-21 00:16:00,1819E-3,5C000000,-0724,0825,12156,026.7,045.4,0.478,735.8,01.18,0.508
2014-10-21 00:17:00,1764E-3,5C000000,-0724,0825,12229,026.7,045.4,0.478,735.8,01.18,0.508
2014-10-21 00:18:00,1787E-3,5C000000,-0724,0825,12101,026.7,045.4,0.478,735.7,01.18,0.508
2014-10-21 00:19:00,1770E-3,5C000000,-0724,0826,12286,026.7,045.5,0.478,735.8,01.18,0.508
2014-10-21 00:20:00,1807E-3,5C000000,-0724,0827,12136,026.7,045.4,0.479,735.7,01.18,0.508
2014-10-21 00:21:00,1691E-3,5C000000,-0724,0826,12148,026.8,045.4,0.478,735.7,01.18,0.508
2014-10-21 00:22:00,1972E-3,5C000000,-0724,0827,12207,026.8,045.4,0.478,735.8,01.18,0.508
2014-10-21 00:23:00,1782E-3,5C000000,-0724,0826,12249,026.8,045.4,0.478,735.7,01.18,0.508
2014-10-21 00:24:00,1651E-3,5C000000,-0724,0825,12263,026.8,045.4,0.478,735.6,01.18,0.508
2014-10-21 00:25:00,1641E-3,5C000000,-0724,0827,12173,026.8,045.4,0.478,735.6,01.18,0.508
2014-10-21 00:26:00,1855E-3,5C000000,-0724,0826,12232,026.8,045.4,0.478,735.6,01.18,0.508
2014-10-21 00:27:00,1919E-3,5C000000,-0724,0826,12207,026.9,045.4,0.478,735.6,01.18,0.508
2014-10-21 00:28:00,1741E-3,5C000000,-0724,0825,12227,026.8,045.5,0.478,735.7,01.18,0.508
2014-10-21 00:29:00,1818E-3,5C000000,-0724,0825,12426,026.8,045.4,0.478,735.6,01.18,0.508
2014-10-21 00:30:00,1835E-3,5C000000,-0724,0825,12153,026.8,045.4,0.478,735.6,01.18,0.508
2014-10-21 00:31:00,1888E-3,5C000000,-0724,0826,12161,026.8,045.4,0.478,735.6,01.18,0.508
2014-10-21 00:32:00,1815E-3,5C000000,-0724,0826,12270,026.8,045.4,0.478,735.6,01.18,0.508
2014-10-21 00:33:00,1880E-3,5C000000,-0724,0825,12244,026.8,045.4,0.478,735.6,01.18,0.508
2014-10-21 00:34:00,1804E-3,5C000000,-0724,0826,12274,026.8,045.4,0.478,735.6,01.18,0.508
2014-10-21 00:35:00,1863E-3,5C000000,-0724,0825,12116,026.7,045.4,0.478,735.5,01.18,0.508
2014-10-21 00:36:00,1824E-3,5C000000,-0724,0826,12306,026.8,045.4,0.478,735.6,01.18,0.508
2014-10-21 00:37:00,1823E-3,5C000000,-0724,0825,12156,026.7,045.4,0.478,735.6,01.18,0.508
2014-10-21 00:38:00,1689E-3,5C000000,-0724,0826,12215,026.7,045.4,0.478,735.7,01.18,0.508
2014-10-21 00:39:00,1781E-3,5C000000,-0724,0826,12403,026.7,045.4,0.479,735.6,01.18,0.508
2014-10-21 00:40:00,1832E-3,5C000000,-0724,0825,12320,026.7,045.4,0.478,735.6,01.18,0.508
2014-10-21 00:41:00,1894E-3,5C000000,-0724,0826,12264,026.8,045.4,0.478,735.5,01.18,0.508
2014-10-21 00:42:00,1820E-3,5C000000,-0724,0826,12238,026.8,045.4,0.478,735.6,01.18,0.508
2014-10-21 00:43:00,1720E-3,5C000000,-0724,0826,12281,026.8,045.4,0.478,735.7,01.18,0.508
2014-10-21 00:44:00,1741E-3,5C000000,-0724,0826,12304,026.8,045.4,0.478,735.7,01.18,0.508
2014-10-21 00:45:00,1749E-3,5C000000,-0724,0827,12022,026.8,045.4,0.478,735.7,01.18,0.508
2014-10-21 00:46:00,1892E-3,5C000000,-0724,0825,12479,026.8,045.4,0.478,735.7,01.18,0.508
2014-10-21 00:47:00,1666E-3,5C000000,-0724,0825,12272,026.8,045.4,0.478,735.6,01.18,0.508
2014-10-21 00:48:00,1817E-3,5C000000,-0724,0825,12036,026.8,045.4,0.478,735.7,01.18,0.508
2014-10-21 00:49:00,1854E-3,5C000000,-0724,0825,12189,026.8,045.4,0.478,735.6,01.18,0.508
2014-10-21 00:50:00,1658E-3,5C000000,-0724,0826,12319,026.7,045.4,0.478,735.6,01.18,0.508
2014-10-21 00:51:00,1800E-3,5C000000,-0724,0826,12315,026.7,045.4,0.478,735.6,01.18,0.508
2014-10-21 00:52:00,1887E-3,5C000000,-0724,0826,12240,026.7,045.4,0.478,735.6,01.18,0.508
2014-10-21 00:53:00,1797E-3,5C000000,-0724,0826,12292,026.7,045.4,0.478,735.6,01.18,0.508
2014-10-21 00:54:00,1759E-3,5C000000,-0724,0825,12292,026.7,045.4,0.478,735.5,01.18,0.508
2014-10-21 00:55:00,1841E-3,5C000000,-0724,0826,12314,026.7,045.4,0.478,735.6,01.18,0.508
2014-10-21 00:56:00,1799E-3,5C000000,-0724,0826,12337,026.6,045.4,0.479,735.6,01.18,0.508
2014-10-21 00:57:00,1796E-3,5C000000,-0724,0825,12341,026.7,045.4,0.478,735.5,01.18,0.508
2014-10-21 00:58:00,1813E-3,5C000000,-0724,0825,12162,026.7,045.5,0.478,735.6,01.18,0.508
2014-10-21 00:59:00,1767E-3,5C000000,-0724,0827,12322,026.7,045.4,0.478,735.5,01.18,0.508
2014-10-21 01:00:00,1711E-3,5C000000,-0724,0826,12237,026.7,045.4,0.478,735.5,01.18,0.508
2014-10-21 01:01:00,1842E-3,5C000000,-0724,0826,12026,026.7,045.4,0.478,735.5,01.18,0.508
2014-10-21 01:02:00,1739E-3,5C000000,-0724,0827,12246,026.8,045.4,0.478,735.5,01.18,0.508
2014-10-21 01:03:00,1868E-3,5C000000,-0724,0824,12276,026.8,045.4,0.478,735.5,01.18,0.508
2014-10-21 01:04:00,1858E-3,5C000000,-0724,0826,12256,026.9,045.4,0.478,735.5,01.18,0.508
2014-10-21 01:05:00,1839E-3,5C000000,-0724,0825,12035,026.9,045.4,0.478,735.4,01.18,0.508
2014-10-21 01:06:00,1673E-3,5C000000,-0724,0825,12316,027.0,045.4,0.478,735.4,01.18,0.508
2014-10-21 01:07:00,1810E-3,5C000000,-0724,0825,12308,027.1,045.4,0.478,735.4,01.18,0.508
2014-10-21 01:08:00,1672E-3,5C000000,-0724,0825,12286,027.1,045.4,0.477,735.4,01.18,0.508
2014-10-21 01:09:00,1866E-3,5C000000,-0724,0824,12130,027.1,045.4,0.478,735.4,01.18,0.508
2014-10-21 01:10:00,1848E-3,5C000000,-0724,0825,12193,027.1,045.4,0.477,735.4,01.18,0.508
2014-10-21 01:11:00,1932E-3,5C000000,-0724,0825,12291,027.1,045.4,0.478,735.3,01.18,0.508
2014-10-21 01:12:00,1876E-3,5C000000,-0724,0826,12127,027.1,045.4,0.477,735.3,01.18,0.508
2014-10-21 01:13:00,1794E-3,5C000000,-0724,0827,12013,027.1,045.4,0.478,735.3,01.18,0.508
2014-10-21 01:14:00,1824E-3,5C000000,-0724,0828,12205,027.1,045.4,0.478,735.3,01.18,0.508
2014-10-21 01:15:00,1721E-3,5C000000,-0724,0826,12369,027.0,045.4,0.477,735.4,01.18,0.508
2014-10-21 01:16:00,1709E-3,5C000000,-0724,0827,12283,027.0,045.4,0.478,735.4,01.18,0.508
2014-10-21 01:17:00,1795E-3,5C000000,-0724,0826,12354,027.0,045.4,0.478,735.4,01.18,0.508
2014-10-21 01:18:00,1718E-3,5C000000,-0724,0826,12383,027.0,045.4,0.478,735.4,01.18,0.508
2014-10-21 01:19:00,1796E-3,5C000000,-0724,0826,12270,026.9,045.4,0.478,735.3,01.18,0.508
2014-10-21 01:20:00,1888E-3,5C000000,-0724,0826,12117,026.9,045.4,0.478,735.4,01.18,0.508
2014-10-21 01:21:00,1701E-3,5C000000,-0724,0825,12277,026.9,045.4,0.478,735.3,01.18,0.508
2014-10-21 01:22:00,1724E-3,5C000000,-0724,0825,12228,027.0,045.4,0.478,735.3,01.18,0.508
2014-10-21 01:23:00,1840E-3,5C000000,-0724,0826,12225,027.0,045.4,0.478,735.4,01.18,0.508
2014-10-21 01:24:00,1724E-3,5C000000,-0724,0825,12217,027.0,045.4,0.478,735.4,01.18,0.508
2014-10-21 01:25:00,1830E-3,5C000000,-0724,0826,12204,027.0,045.5,0.478,735.4,01.18,0.508
2014-10-21 01:26:00,1843E-3,5C000000,-0724,0826,12145,027.0,045.4,0.478,735.3,01.18,0.508
2014-10-21 01:27:00,1768E-3,5C000000,-0724,0825,12334,027.0,045.4,0.478,735.3,01.18,0.508
2014-10-21 01:28:00,1723E-3,5C000000,-0724,0825,12366,027.0,045.4,0.478,735.4,01.18,0.508
2014-10-21 01:29:00,1802E-3,5C000000,-0724,0825,12376,027.0,045.4,0.478,735.3,01.18,0.508
2014-10-21 01:30:00,1741E-3,5C000000,-0724,0825,12313,027.0,045.4,0.478,735.4,01.18,0.508
2014-10-21 01:31:00,1873E-3,5C000000,-0724,0825,12197,027.0,045.4,0.478,735.3,01.18,0.508
2014-10-21 01:32:00,1846E-3,5C000000,-0724,0825,12343,026.9,045.4,0.478,735.3,01.18,0.508
2014-10-21 01:33:00,1823E-3,5C000000,-0724,0825,12067,026.9,045.4,0.478,735.4,01.18,0.508
2014-10-21 01:34:00,1867E-3,5C000000,-0724,0824,12128,026.9,045.4,0.478,735.4,01.18,0.508
2014-10-21 01:35:00,1720E-3,5C000000,-0724,0825,12066,026.9,045.4,0.478,735.5,01.18,0.508
2014-10-21 01:36:00,1861E-3,5C000000,-0724,0825,12310,026.9,045.4,0.478,735.4,01.18,0.508
2014-10-21 01:37:00,1845E-3,5C000000,-0724,0825,12138,026.9,045.4,0.478,735.4,01.18,0.508
2014-10-21 01:38:00,1825E-3,5C000000,-0724,0826,12362,026.9,045.4,0.478,735.4,01.18,0.508
2014-10-21 01:39:00,1836E-3,5C000000,-0724,0826,12169,026.9,045.4,0.478,735.3,01.18,0.508
2014-10-21 01:40:00,1820E-3,5C000000,-0724,0826,12175,026.9,045.4,0.478,735.4,01.18,0.508
2014-10-21 01:41:00,1762E-3,5C000000,-0724,0827,12160,026.9,045.4,0.478,735.4,01.18,0.508
2014-10-21 01:42:00,2008E-3,5C000000,-0724,0826,12211,026.9,045.4,0.478,735.4,01.18,0.508
2014-10-21 01:43:00,1902E-3,5C000000,-0724,0825,12339,027.0,045.4,0.478,735.4,01.18,0.508
2014-10-21 01:44:00,1805E-3,5C000000,-0724,0826,12250,027.0,045.4,0.478,735.4,01.18,0.508
2014-10-21 01:45:00,1859E-3,5C000000,-0724,0825,12311,027.0,045.4,0.478,735.4,01.18,0.508
2014-10-21 01:46:00,1865E-3,5C000000,-0724,0825,12267,027.0,045.4,0.478,735.4,01.18,0.508
2014-10-21 01:47:00,1855E-3,5C000000,-0724,0826,12281,027.0,045.4,0.478,735.3,01.18,0.508
2014-10-21 01:48:00,1714E-3,5C000000,-0724,0827,12255,027.0,045.4,0.478,735.3,01.18,0.508
2014-10-21 01:49:00,1811E-3,5C000000,-0724,0827,12158,027.0,045.4,0.478,735.3,01.18,0.508
2014-10-21 01:50:00,1772E-3,5C000000,-0724,0827,12241,027.0,045.4,0.478,735.3,01.18,0.508
2014-10-21 01:51:00,1855E-3,5C000000,-0724,0827,12155,027.0,045.4,0.478,735.4,01.18,0.508
2014-10-21 01:52:00,1822E-3,5C000000,-0724,0826,12135,027.0,045.4,0.478,735.3,01.18,0.508
2014-10-21 01:53:00,1826E-3,5C000000,-0724,0828,12369,027.0,045.4,0.478,735.3,01.18,0.508
2014-10-21 01:54:00,1720E-3,5C000000,-0724,0826,12140,026.9,045.4,0.478,735.4,01.18,0.508
2014-10-21 01:55:00,1676E-3,5C000000,-0724,0827,12287,027.0,045.4,0.478,735.3,01.18,0.508
2014-10-21 01:56:00,1679E-3,5C000000,-0724,0826,12204,027.0,045.4,0.478,735.4,01.18,0.508
2014-10-21 01:57:00,1827E-3,5C000000,-0724,0827,12276,026.9,045.4,0.478,735.3,01.18,0.508
2014-10-21 01:58:00,1839E-3,5C000000,-0724,0827,12307,027.0,045.4,0.478,735.3,01.18,0.508
2014-10-21 01:59:00,1893E-3,5C000000,-0724,0826,12252,026.9,045.4,0.478,735.2,01.18,0.508
2014-10-21 02:00:00,1953E-3,5C000000,-0724,0827,12276,026.9,045.4,0.478,735.3,01.18,0.508
2014-10-21 02:01:00,1805E-3,5C000000,-0724,0826,12307,026.9,045.4,0.478,735.2,01.18,0.508
2014-10-21 02:02:00,1931E-3,5C000000,-0724,0826,12182,026.9,045.4,0.478,735.2,01.18,0.508
2014-10-21 02:03:00,1771E-3,5C000000,-0724,0824,12129,026.9,045.4,0.478,735.1,01.18,0.508
2014-10-21 02:04:00,1757E-3,5C000000,-0724,0826,12290,026.9,045.4,0.478,735.2,01.18,0.508
2014-10-21 02:05:00,1731E-3,5C000000,-0724,0826,12079,026.9,045.4,0.478,735.3,01.18,0.508
2014-10-21 02:06:00,1903E-3,5C000000,-0724,0824,12226,026.9,045.4,0.478,735.2,01.18,0.508
2014-10-21 02:07:00,1797E-3,5C000000,-0724,0826,12172,026.9,045.4,0.478,735.2,01.18,0.508
2014-10-21 02:08:00,1673E-3,5C000000,-0724,0825,12246,026.9,045.4,0.478,735.1,01.18,0.508
2014-10-21 02:09:00,1784E-3,5C000000,-0724,0825,12017,026.9,045.4,0.478,735.1,01.18,0.508
2014-10-21 02:10:00,1811E-3,5C000000,-0724,0825,12352,026.9,045.4,0.478,735.2,01.18,0.508
2014-10-21 02:11:00,1803E-3,5C000000,-0724,0824,12340,026.9,045.4,0.478,735.2,01.18,0.508
2014-10-21 02:12:00,1760E-3,5C000000,-0724,0826,12335,026.9,045.4,0.478,735.3,01.18,0.508
2014-10-21 02:13:00,1865E-3,5C000000,-0724,0825,12203,027.0,045.4,0.478,735.2,01.18,0.508
2014-10-21 02:14:00,1765E-3,5C000000,-0724,0825,12297,026.9,045.4,0.478,735.3,01.18,0.508
2014-10-21 02:15:00,1819E-3,5C000000,-0724,0823,12243,026.9,045.4,0.478,735.2,01.18,0.508
2014-10-21 02:16:00,1720E-3,5C000000,-0724,0825,12329,026.9,045.4,0.478,735.3,01.18,0.508
2014-10-21 02:17:00,1774E-3,5C000000,-0724,0825,12300,026.9,045.4,0.478,735.1,01.18,0.508
2014-10-21 02:18:00,1696E-3,5C000000,-0724,0824,12003,026.9,045.4,0.478,735.3,01.18,0.508
2014-10-21 02:19:00,1796E-3,5C000000,-0724,0825,12320,026.9,045.4,0.478,735.2,01.18,0.508
2014-10-21 02:20:00,1850E-3,5C000000,-0724,0826,12104,026.9,045.4,0.478,735.1,01.18,0.508
2014-10-21 02:21:00,1818E-3,5C000000,-0724,0826,12225,026.9,045.4,0.478,735.1,01.18,0.508
2014-10-21 02:22:00,1698E-3,5C000000,-0724,0825,12181,026.9,045.4,0.478,735.2,01.18,0.508
2014-10-21 02:23:00,1824E-3,5C000000,-0724,0826,12234,026.9,045.4,0.478,735.2,01.18,0.508
2014-10-21 02:24:00,1922E-3,5C000000,-0724,0826,12226,026.9,045.4,0.478,735.2,01.18,0.508
2014-10-21 02:25:00,1891E-3,5C000000,-0724,0825,12144,026.9,045.4,0.478,735.3,01.18,0.508
2014-10-21 02:26:00,1940E-3,5C000000,-0724,0826,12239,026.9,045.5,0.478,735.3,01.18,0.508
2014-10-21 02:27:00,1820E-3,5C000000,-0724,0826,12189,026.9,045.4,0.478,735.2,01.18,0.508
2014-10-21 02:28:00,1665E-3,5C000000,-0724,0827,12125,026.9,045.4,0.478,735.2,01.18,0.508
2014-10-21 02:29:00,1870E-3,5C000000,-0724,0826,12100,026.9,045.4,0.478,735.3,01.18,0.508
2014-10-21 02:30:00,1683E-3,5C000000,-0724,0826,12189,026.9,045.4,0.478,735.2,01.18,0.508
2014-10-21 02:31:00,1875E-3,5C000000,-0724,0827,12242,026.9,045.4,0.478,735.1,01.18,0.508
2014-10-21 02:32:00,1871E-3,5C000000,-0724,0826,12368,026.9,045.4,0.478,735.2,01.18,0.508
2014-10-21 02:33:00,1860E-3,5C000000,-0724,0826,12172,026.9,045.4,0.478,735.1,01.18,0.508
2014-10-21 02:34:00,1892E-3,5C000000,-0724,0827,12299,026.9,045.4,0.478,735.3,01.18,0.508
2014-10-21 02:35:00,1781E-3,5C000000,-0724,0826,12243,026.9,045.4,0.478,735.2,01.18,0.508
2014-10-21 02:36:00,1913E-3,5C000000,-0724,0826,12379,026.9,045.4,0.478,735.3,01.18,0.508
2014-10-21 02:37:00,1782E-3,5C000000,-0724,0826,12189,026.9,045.4,0.478,735.2,01.18,0.508
2014-10-21 02:38:00,1880E-3,5C000000,-0724,0826,12285,026.8,045.4,0.478,735.2,01.18,0.508
2014-10-21 02:39:00,1781E-3,5C000000,-0724,0826,12038,026.9,045.4,0.478,735.1,01.18,0.508
2014-10-21 02:40:00,1730E-3,5C000000,-0724,0826,12417,026.9,045.4,0.478,735.2,01.18,0.508
2014-10-21 02:41:00,1912E-3,5C000000,-0724,0826,12452,026.9,045.4,0.478,735.1,01.18,0.508
2014-10-21 02:42:00,1741E-3,5C000000,-0724,0826,12116,026.9,045.4,0.478,735.3,01.18,0.508
2014-10-21 02:43:00,1787E-3,5C000000,-0724,0826,12228,026.9,045.4,0.478,735.3,01.18,0.508
2014-10-21 02:44:00,1913E-3,5C000000,-0724,0826,12328,026.9,045.4,0.478,735.2,01.18,0.508
2014-10-21 02:45:00,1794E-3,5C000000,-0724,0825,12416,026.9,045.4,0.478,735.2,01.18,0.508
2014-10-21 02:46:00,1747E-3,5C000000,-0724,0826,12218,026.9,045.4,0.478,735.1,01.18,0.508
2014-10-21 02:47:00,1880E-3,5C000000,-0724,0827,12228,026.9,045.4,0.478,735.1,01.18,0.508
2014-10-21 02:48:00,1789E-3,5C000000,-0724,0826,12224,026.9,045.4,0.478,735.2,01.18,0.508
2014-10-21 02:49:00,1763E-3,5C000000,-0724,0825,12267,026.8,045.4,0.478,735.3,01.18,0.508
2014-10-21 02:50:00,1785E-3,5C000000,-0724,0825,12223,026.8,045.4,0.478,735.2,01.18,0.508
2014-10-21 02:51:00,1741E-3,5C000000,-0724,0825,12196,026.9,045.4,0.478,735.2,01.18,0.508
2014-10-21 02:52:00,1856E-3,5C000000,-0724,0825,12121,026.8,045.4,0.478,735.1,01.18,0.508
2014-10-21 02:53:00,1833E-3,5C000000,-0724,0826,12280,026.9,045.4,0.478,735.1,01.18,0.508
2014-10-21 02:54:00,1881E-3,5C000000,-0724,0826,12076,026.9,045.4,0.478,735.1,01.18,0.508
2014-10-21 02:55:00,1794E-3,5C000000,-0724,0826,12079,026.9,045.4,0.478,735.2,01.18,0.508
2014-10-21 02:56:00,1793E-3,5C000000,-0724,0825,12170,026.9,045.4,0.478,735.1,01.18,0.508
2014-10-21 02:57:00,1844E-3,5C000000,-0724,0826,12395,026.9,045.4,0.478,735.1,01.18,0.508
2014-10-21 02:58:00,1841E-3,5C000000,-0724,0826,12137,026.9,045.4,0.478,735.1,01.18,0.508
2014-10-21 02:59:00,1828E-3,5C000000,-0724,0826,12304,026.9,045.4,0.478,735.1,01.18,0.508
2014-10-21 03:00:00,1895E-3,5C000000,-0724,0825,12318,026.9,045.4,0.478,735.1,01.18,0.508
2014-10-21 03:01:00,1679E-3,5C000000,-0724,0826,12474,026.9,045.4,0.478,735.0,01.18,0.508
2014-10-21 03:02:00,1830E-3,5C000000,-0724,0826,12327,026.9,045.4,0.478,735.1,01.18,0.508
2014-10-21 03:03:00,1793E-3,5C000000,-0724,0826,12337,026.9,045.4,0.478,735.0,01.18,0.508
2014-10-21 03:04:00,1789E-3,5C000000,-0724,0827,12030,026.9,045.5,0.478,735.1,01.18,0.508
2014-10-21 03:05:00,1688E-3,5C000000,-0724,0826,12113,026.9,045.4,0.478,734.9,01.18,0.508
2014-10-21 03:06:00,1824E-3,5C000000,-0724,0825,12375,026.8,045.4,0.478,735.0,01.18,0.508
2014-10-21 03:07:00,1739E-3,5C000000,-0724,0826,12218,026.8,045.4,0.478,735.1,01.18,0.508
2014-10-21 03:08:00,1696E-3,5C000000,-0724,0827,12210,026.8,045.4,0.478,735.0,01.18,0.508
2014-10-21 03:09:00,1797E-3,5C000000,-0724,0827,12337,026.8,045.4,0.478,734.9,01.18,0.508
2014-10-21 03:10:00,1747E-3,5C000000,-0724,0826,12249,026.9,045.4,0.478,734.9,01.18,0.508
2014-10-21 03:11:00,1795E-3,5C000000,-0724,0826,12223,026.9,045.4,0.478,735.0,01.18,0.508
2014-10-21 03:12:00,1849E-3,5C000000,-0724,0825,12234,026.9,045.4,0.478,734.9,01.18,0.508
2014-10-21 03:13:00,1729E-3,5C000000,-0724,0826,12096,026.9,045.4,0.478,734.9,01.18,0.508
2014-10-21 03:14:00,1734E-3,5C000000,-0724,0826,12283,026.9,045.4,0.477,734.9,01.18,0.508
2014-10-21 03:15:00,1911E-3,5C000000,-0724,0826,12180,026.9,045.4,0.478,734.9,01.18,0.508
2014-10-21 03:16:00,1709E-3,5C000000,-0724,0826,12191,026.9,045.4,0.478,735.0,01.18,0.508
2014-10-21 03:17:00,1712E-3,5C000000,-0724,0827,12237,026.9,045.4,0.478,735.0,01.18,0.508
2014-10-21 03:18:00,1831E-3,5C000000,-0724,0826,12209,026.9,045.4,0.478,735.0,01.18,0.508
2014-10-21 03:19:00,1792E-3,5C000000,-0724,0826,12050,026.9,045.4,0.478,734.9,01.18,0.508
2014-10-21 03:20:00,1758E-3,5C000000,-0724,0826,12266,026.9,045.4,0.478,734.8,01.18,0.508
2014-10-21 03:21:00,1794E-3,5C000000,-0724,0827,12171,026.9,045.4,0.478,735.0,01.18,0.508
2014-10-21 03:22:00,1712E-3,5C000000,-0724,0826,12206,026.8,045.4,0.478,734.9,01.18,0.508
2014-10-21 03:23:00,1883E-3,5C000000,-0724,0826,12318,026.8,045.4,0.478,735.0,01.18,0.508
2014-10-21 03:24:00,1957E-3,5C000000,-0724,0826,12206,026.8,045.4,0.478,734.9,01.18,0.508
2014-10-21 03:25:00,1778E-3,5C000000,-0724,0826,12354,026.8,045.4,0.478,735.0,01.18,0.508
2014-10-21 03:26:00,1764E-3,5C000000,-0724,0826,12199,026.8,045.4,0.478,734.9,01.18,0.508
2014-10-21 03:27:00,1770E-3,5C000000,-0724,0826,12242,026.9,045.4,0.478,735.0,01.18,0.508
2014-10-21 03:28:00,1805E-3,5C000000,-0724,0825,12121,026.9,045.4,0.478,735.0,01.18,0.508
2014-10-21 03:29:00,1930E-3,5C000000,-0724,0826,12343,026.9,045.4,0.478,735.0,01.18,0.508
2014-10-21 03:30:00,1951E-3,5C000000,-0724,0826,12033,026.9,045.4,0.478,734.7,01.18,0.508
2014-10-21 03:31:00,1793E-3,5C000000,-0724,0826,12113,026.9,045.4,0.478,734.9,01.18,0.508
2014-10-21 03:32:00,1753E-3,5C000000,-0724,0826,12288,026.9,045.4,0.478,734.9,01.18,0.508
2014-10-21 03:33:00,1821E-3,5C000000,-0724,0826,12465,026.9,045.4,0.478,734.9,01.18,0.508
2014-10-21 03:34:00,1740E-3,5C000000,-0724,0827,12333,026.8,045.4,0.478,734.9,01.18,0.508
2014-10-21 03:35:00,1634E-3,5C000000,-0724,0826,12341,026.8,045.4,0.478,734.9,01.18,0.508
2014-10-21 03:36:00,1778E-3,5C000000,-0724,0827,12429,026.8,045.4,0.478,734.9,01.18,0.508
2014-10-21 03:37:00,1676E-3,5C000000,-0724,0826,12323,026.8,045.4,0.478,734.8,01.18,0.508
2014-10-21 03:38:00,1899E-3,5C000000,-0724,0826,12127,026.8,045.4,0.478,734.8,01.18,0.508
2014-10-21 03:39:00,1749E-3,5C000000,-0724,0826,12249,026.9,045.4,0.478,734.7,01.18,0.508
2014-10-21 03:40:00,1750E-3,5C000000,-0724,0827,12282,026.9,045.4,0.478,734.8,01.18,0.508
2014-10-21 03:41:00,1845E-3,5C000000,-0724,0826,12237,026.8,045.4,0.478,734.9,01.18,0.508
2014-10-21 03:42:00,1709E-3,5C000000,-0724,0827,12282,026.8,045.4,0.478,734.9,01.18,0.508
2014-10-21 03:43:00,1797E-3,5C000000,-0724,0826,12311,026.9,045.4,0.478,734.8,01.18,0.508
2014-10-21 03:44:00,1761E-3,5C000000,-0724,0826,12049,026.9,045.4,0.478,734.9,01.18,0.508
2014-10-21 03:45:00,1814E-3,5C000000,-0724,0827,12174,026.9,045.4,0.478,734.8,01.18,0.508
2014-10-21 03:46:00,1798E-3,5C000000,-0724,0827,12271,026.9,045.4,0.478,735.0,01.18,0.508
2014-10-21 03:47:00,1794E-3,5C000000,-0724,0827,12313,026.9,045.4,0.478,734.9,01.18,0.508
2014-10-21 03:48:00,1892E-3,5C000000,-0724,0826,12351,026.9,045.4,0.478,734.9,01.18,0.508
2014-10-21 03:49:00,1776E-3,5C000000,-0724,0827,12293,026.9,045.4,0.478,734.8,01.18,0.508
2014-10-21 03:50:00,1825E-3,5C000000,-0724,0826,12327,026.9,045.4,0.478,734.9,01.18,0.508
2014-10-21 03:51:00,1894E-3,5C000000,-0724,0826,12276,026.9,045.4,0.478,734.8,01.18,0.508
2014-10-21 03:52:00,1842E-3,5C000000,-0724,0825,12151,026.8,045.4,0.477,734.7,01.18,0.508
2014-10-21 03:53:00,1794E-3,5C000000,-0724,0826,12330,026.8,045.4,0.478,734.8,01.18,0.508
2014-10-21 03:54:00,1761E-3,5C000000,-0724,0826,12232,026.8,045.4,0.478,734.9,01.18,0.508
2014-10-21 03:55:00,1735E-3,5C000000,-0724,0826,12237,026.8,045.4,0.478,734.8,01.18,0.508
2014-10-21 03:56:00,1857E-3,5C000000,-0724,0826,12183,026.8,045.4,0.478,734.8,01.18,0.508
2014-10-21 03:57:00,1769E-3,5C000000,-0724,0826,12206,026.8,045.4,0.478,734.9,01.18,0.508
2014-10-21 03:58:00,1821E-3,5C000000,-0724,0826,12170,026.8,045.4,0.478,734.9,01.18,0.508
2014-10-21 03:59:00,1822E-3,5C000000,-0724,0826,12168,026.9,045.4,0.478,734.8,01.18,0.508
2014-10-21 04:00:00,1840E-3,5C000000,-0724,0826,12168,026.9,045.4,0.478,734.7,01.18,0.508
2014-10-21 04:01:00,1854E-3,5C000000,-0724,0826,12212,026.9,045.4,0.478,734.9,01.18,0.508
2014-10-21 04:02:00,1803E-3,5C000000,-0724,0826,12220,027.0,045.4,0.478,734.7,01.18,0.508
2014-10-21 04:03:00,1794E-3,5C000000,-0724,0826,12205,027.0,045.4,0.477,734.7,01.18,0.508
2014-10-21 04:04:00,1753E-3,5C000000,-0724,0826,12166,027.0,045.4,0.478,734.8,01.18,0.508
2014-10-21 04:05:00,1796E-3,5C000000,-0724,0826,12195,027.0,045.4,0.478,734.8,01.18,0.508
2014-10-21 04:06:00,1719E-3,5C000000,-0724,0826,12155,027.0,045.4,0.478,734.7,01.18,0.508
2014-10-21 04:07:00,1737E-3,5C000000,-0724,0826,12070,027.0,045.4,0.478,734.8,01.18,0.508
2014-10-21 04:08:00,1791E-3,5C000000,-0724,0826,12195,027.0,045.4,0.478,734.8,01.18,0.508
2014-10-21 04:09:00,1773E-3,5C000000,-0724,0827,12260,026.9,045.4,0.478,734.8,01.18,0.508
2014-10-21 04:10:00,1836E-3,5C000000,-0724,0825,12245,026.9,045.4,0.477,734.8,01.18,0.508
2014-10-21 04:11:00,1692E-3,5C000000,-0724,0825,12098,026.9,045.4,0.478,734.7,01.18,0.508
2014-10-21 04:12:00,1826E-3,5C000000,-0724,0826,12144,026.9,045.4,0.478,734.8,01.18,0.508
2014-10-21 04:13:00,1931E-3,5C000000,-0724,0826,12314,026.9,045.4,0.478,734.8,01.18,0.508
2014-10-21 04:14:00,1831E-3,5C000000,-0724,0826,12258,026.9,045.4,0.478,734.8,01.18,0.508
2014-10-21 04:15:00,1752E-3,5C000000,-0724,0825,12174,026.9,045.4,0.478,734.7,01.18,0.508
2014-10-21 04:16:00,1818E-3,5C000000,-0724,0826,12363,026.9,045.4,0.478,734.8,01.18,0.508
2014-10-21 04:17:00,1723E-3,5C000000,-0724,0827,12199,027.0,045.4,0.478,734.7,01.18,0.508
2014-10-21 04:18:00,1796E-3,5C000000,-0724,0826,12105,027.0,045.4,0.478,734.7,01.18,0.508
2014-10-21 04:19:00,1839E-3,5C000000,-0724,0826,12170,027.0,045.4,0.477,734.7,01.18,0.508
2014-10-21 04:20:00,1789E-3,5C000000,-0724,0826,12211,027.0,045.5,0.478,734.5,01.18,0.508